Orbital Elements
Epoch 2022 Mar. 2.0 TT = JDT 2459640.5
T 2022 Mar. 18.06594 TT Rudenko
q 1.5523778 (2000.0) P Q
n 0.15446325 Peri. 163.02113 +0.24028401 +0.96810347
a 3.4402178 Node 120.83152 -0.89992972 +0.24958055
e 0.5487560 Incl. 4.74211 -0.36385451 +0.02202756
P 6.38
From 4858 observations 1958 June 26-2021 Mar. 13, mean residual 0".8.
Nongravitational parameters A1 = +0.12, A2 = -0.0856.
|